Weather in Shchel'

Russia / Komi Republic     64°49′09″N   53°46′22″E
temp.,
°C
wind,
m/s
gust,
m/s
humid.,
%
clouds,
%
prec.,
mm/h
press.,
hPa
HPBL,
m
19 april, mon
mon1900:00−6n018252 0.0 103941
03:00−6sw11846 0.0 103923
06:00−5sw237031 0.0 1038279
09:000wsw34535 0.0 1037962
12:00+3w35405 0.0 10341314
15:00+5w46415 0.0 10321431
18:00+3w3760100 0.0 1031154
21:000w3117485 0.0 1031251
20 april, tue
tue2000:000w3127698 0.0 1030322
03:000w3127468 0.0 1029348
06:00+2w4126753 0.0 1029521
09:00+5wnw595821 0.0 1028858
12:00+8wnw575334 0.0 10281137
15:00+9nw465524 0.0 10291263
18:00+7nw23705 0.0 102969
21:00+4nw11865 0.0 102910
21 april, wed
wed2100:00+2wsw11905 0.0 103010
03:00+1ssw11915 0.0 103010
06:00+3s23815 0.0 1030133
09:00+8s245797 0.0 1029573
12:00+10s344311 0.0 10281129
15:00+11s453929 0.0 10261321
18:00+10sse494825 0.0 1025551
21:00+7sse41262100 0.0 1024436
22 april, thu
thu2200:00+6sse51466100 0.0 1022558
03:00+5sse51468100 0.0 1020597
06:00+6sse61461100 0.0 1019845
09:00+8s61257100 0.0 10181139
12:00+8s61367100 0.0 10181136
15:00+7s61272100 0.0 10191333
18:00+6s61282100 0.1 10191325
21:00+5s51185100 0.1 1020954
23 april, fri
fri2300:00+5s51184100 0.0 1019642
03:00+5s51285100 0.0 1020725
06:00+4s51283100 0.0 1021693
09:00+6ssw51180100 0.0 1022823
12:00+8ssw596792 0.1 10231232
15:00+9s4764100 0.1 1024856
18:00+8s49689 0.0 1025567
21:00+6sse411765 0.0 1026315